Time,TemperatureF,DewpointF,PressureIn,WindDirection,WindDirectionDegrees,WindSpeedMPH,WindSpeedGustMPH,Humidity,HourlyPrecipIn,Conditions,Clouds,dailyrainin,SoftwareType,DateUTC
2013-01-13 00:00:00,53.0,51.6,29.99,West,270,0.0,0.0,95,0.00,,---,0.00,VWS V13.01,2013-01-13 05:00:00,
2013-01-13 00:30:00,52.5,51.1,29.99,West,270,0.0,1.0,95,0.00,,---,0.00,VWS V13.01,2013-01-13 05:30:00,
2013-01-13 01:30:00,51.0,49.6,29.98,West,270,0.0,2.0,95,0.00,,---,0.00,VWS V13.01,2013-01-13 06:30:00,
2013-01-13 02:00:00,50.7,49.6,29.98,West,270,0.0,1.0,96,0.00,,---,0.00,VWS V13.01,2013-01-13 07:00:00,
2013-01-13 02:30:00,51.1,50.3,29.97,West,270,0.0,0.0,97,0.00,,---,0.00,VWS V13.01,2013-01-13 07:30:00,
2013-01-13 03:30:00,51.4,50.6,29.97,West,270,0.0,1.0,97,0.00,,---,0.00,VWS V13.01,2013-01-13 08:30:00,
2013-01-13 04:00:00,52.2,51.4,29.97,West,270,0.0,0.0,97,0.00,,---,0.00,VWS V13.01,2013-01-13 09:00:00,
2013-01-13 05:00:00,53.3,52.5,29.94,West,270,0.0,1.0,97,0.00,,---,0.00,VWS V13.01,2013-01-13 10:00:00,
2013-01-13 05:30:00,53.4,52.8,29.93,West,270,0.0,1.0,98,0.00,,---,0.00,VWS V13.01,2013-01-13 10:30:00,
2013-01-13 06:30:00,53.4,52.8,29.92,West,270,0.0,0.0,98,0.00,,---,0.00,VWS V13.01,2013-01-13 11:30:00,
2013-01-13 07:00:00,53.7,53.2,29.92,West,270,0.0,1.0,98,0.00,,---,0.00,VWS V13.01,2013-01-13 12:00:00,
2013-01-13 08:00:00,53.5,53.0,29.93,West,270,0.0,0.0,98,0.01,,---,0.01,VWS V13.01,2013-01-13 13:00:00,
2013-01-13 09:00:00,53.5,53.2,29.93,West,270,0.0,1.0,99,0.00,,---,0.01,VWS V13.01,2013-01-13 14:00:00,
2013-01-13 09:30:00,53.9,53.6,29.93,West,270,0.0,1.0,99,0.00,,---,0.01,VWS V13.01,2013-01-13 14:30:00,
2013-01-13 10:00:00,54.4,54.1,29.96,West,270,0.0,4.0,99,0.00,,---,0.01,VWS V13.01,2013-01-13 15:00:00,
2013-01-13 10:30:00,55.2,54.9,29.95,West,270,0.0,3.0,99,0.00,,---,0.01,VWS V13.01,2013-01-13 15:30:00,
2013-01-13 11:00:00,56.6,56.3,29.96,ESE,112,0.0,3.0,99,0.00,,---,0.01,VWS V13.01,2013-01-13 16:00:00,
2013-01-13 11:30:00,57.4,57.1,29.95,SE,135,0.0,3.0,99,0.00,,---,0.01,VWS V13.01,2013-01-13 16:30:00,
2013-01-13 12:00:00,58.3,58.0,29.94,ESE,112,2.0,6.0,99,0.00,,---,0.01,VWS V13.01,2013-01-13 17:00:00,
2013-01-13 12:30:00,60.4,59.5,29.92,South,180,1.0,4.0,97,0.00,,---,0.01,VWS V13.01,2013-01-13 17:30:00,
2013-01-13 13:00:00,62.7,59.7,29.89,ESE,112,0.0,4.0,90,0.00,,---,0.01,VWS V13.01,2013-01-13 18:00:00,
2013-01-13 13:30:00,65.3,60.3,29.87,ESE,112,1.0,5.0,84,0.00,,---,0.01,VWS V13.01,2013-01-13 18:30:00,
2013-01-13 14:00:00,66.4,59.7,29.84,SSE,158,1.0,5.0,79,0.00,,---,0.01,VWS V13.01,2013-01-13 19:00:00,
2013-01-13 14:30:00,67.4,60.0,29.83,ESE,112,3.0,6.0,77,0.00,,---,0.01,VWS V13.01,2013-01-13 19:30:00,
2013-01-13 15:00:00,69.4,60.8,29.82,ENE,68,2.0,7.0,74,0.00,,---,0.01,VWS V13.01,2013-01-13 20:00:00,
2013-01-13 15:30:00,69.9,60.9,29.83,ENE,68,3.0,7.0,73,0.00,,---,0.01,VWS V13.01,2013-01-13 20:30:00,
2013-01-13 16:00:00,70.1,61.4,29.83,ENE,68,2.0,7.0,74,0.00,,---,0.01,VWS V13.01,2013-01-13 21:00:00,
2013-01-13 16:30:00,69.9,61.2,29.83,NE,45,2.0,7.0,74,0.00,,---,0.01,VWS V13.01,2013-01-13 21:30:00,
2013-01-13 17:00:00,70.3,61.6,29.83,NNE,22,1.0,4.0,74,0.00,,---,0.01,VWS V13.01,2013-01-13 22:00:00,
2013-01-13 17:30:00,69.9,61.2,29.84,SSW,202,0.0,4.0,74,0.00,,---,0.01,VWS V13.01,2013-01-13 22:30:00,
2013-01-13 18:00:00,68.1,60.6,29.85,SW,225,0.0,3.0,77,0.00,,---,0.01,VWS V13.01,2013-01-13 23:00:00,
2013-01-13 18:30:00,66.6,60.2,29.85,SW,225,0.0,1.0,80,0.00,,---,0.01,VWS V13.01,2013-01-13 23:30:00,
2013-01-13 19:00:00,63.3,58.4,29.85,SW,225,0.0,1.0,84,0.00,,---,0.01,VWS V13.01,2013-01-14 00:00:00,
2013-01-13 19:30:00,60.8,57.2,29.86,SW,225,0.0,2.0,88,0.00,,---,0.01,VWS V13.01,2013-01-14 00:30:00,
2013-01-13 20:00:00,59.2,56.6,29.86,SW,225,1.0,5.0,91,0.00,,---,0.01,VWS V13.01,2013-01-14 01:00:00,
2013-01-13 20:30:00,59.3,56.4,29.85,ESE,112,1.0,6.0,90,0.00,,---,0.01,VWS V13.01,2013-01-14 01:30:00,
2013-01-13 21:00:00,59.0,56.1,29.85,SSW,202,0.0,5.0,90,0.00,,---,0.01,VWS V13.01,2013-01-14 02:00:00,
2013-01-13 21:30:00,58.0,55.1,29.85,West,270,0.0,2.0,90,0.00,,---,0.01,VWS V13.01,2013-01-14 02:30:00,
2013-01-13 22:00:00,56.9,54.3,29.85,West,270,0.0,1.0,91,0.00,,---,0.01,VWS V13.01,2013-01-14 03:00:00,
2013-01-13 22:30:00,55.9,53.9,29.85,West,270,0.0,1.0,93,0.00,,---,0.01,VWS V13.01,2013-01-14 03:30:00,
2013-01-13 23:00:00,55.1,53.4,29.85,WNW,292,0.0,4.0,94,0.00,,---,0.01,VWS V13.01,2013-01-14 04:00:00,
2013-01-13 23:30:00,55.3,53.9,29.85,West,270,0.0,2.0,95,0.00,,---,0.01,VWS V13.01,2013-01-14 04:30:00,